星链-4409 (STARLINK-4409 )

导读

STARLINK-4409是美国太空探索技术公司(SpaceX)的星链(Starlink)互联网卫星,于2022年7月22日发射升空,归属星链低轨互联网星座组网卫星,为全球提供高速低延迟宽带互联网服务。作为星链星座批量部署的成员,它在近地轨道运行,支撑星座全球覆盖能力。

Basic Information
目录编号:
53203
目录名称:
STARLINK-4409
国际标识:
2022-084Q
轨道中心:
EARTH
卫星名称:
星链-4409
卫星全名:
星链-4409 (STARLINK-4409 )
卫星状态:
在轨 (已飞行1506 天)
发射日期:
2022-07-22 UTC
国别 :
美国 (US)
星等 :
--
Orbit Information
数据来源 国际轨道数据
星历时间: 2026-09-05T14:00:02+0800
14小时前
查看轨道信息
半长轴: 6865.918km
偏心率: 0.0001988
轨道倾角: 97.287°
近地点辐角 85.812°
升交点赤经 304.252°
平近点角 34.488°
近地点: 486.416km
远地点: 489.146km
周期: 94.364分钟
每日圈数: 15.260013
Detailed Information
固有亮度:
5
最大亮度:
2.5
卫星平台:
Starlink v1.5
覆盖范围:
全球
运营商:
太空探索技术公司
运营商所在国:
美国
制造商(研发单位):
太空探索技术公司
制造商所在国:
美国
使用方式:
暂无
Satellite Introduction
星链(Starlink)计划是由太空探索技术公司(SpaceX)提出的一个巨型低轨卫星互联网星座项目,计划在2019年至2024年间在太空搭建由约1.2万颗卫星组成的“星链”网络,其中1584颗将部署在地球上空550千米处的近地轨道,并从2020年开始工作。该卫星仍在工作。
2D Orbit Map
3D Orbit Map
Orbit Altitude Analysis Chart
Orbit Inclination Analysis Chart
Orbit Comprehensive Analysis Chart
View Comprehensive Chart
Conjunction Data List
Event ID Objects TCA Miss Dist (km) Collision Risk Probability Collision Risk Index (CRI) Action
CDM_260830-160104-536805-320321
2026-08-30T
16:01:48+0000
1.570 km
极远距离
5.699311E-6 低风险 0.5
CDM_260830-164904-536805-320321
2026-08-30T
16:49:14+0000
1.655 km
极远距离
4.821762E-6 低风险 0.49
CDM_260907-090004-926405-320321
CUPID (49264)
2026-09-07T
09:00:38+0000
2.130 km
极远距离
4.791055E-7 极低风险 0.29